Temperature
23 23 23 24 24 24 25 25 25 25 24 24 24 25 25 24 23 23 23 23 22 21 20 18 17 17 17 16 16 15 15 14 14 14 13 13 13 13 13 13 12 12 12 12
23 23 24 24 24 24 24 24 25 24 24 24 24 25 25 24 23 23 23 23 22 21 20 18 17 17 17 16 15 15 15 14 14 13 13 13 13 13 13 12 12 12 12 12
24 24 24 23 23 23 24 24 25 24 23 23 24 25 25 24 23 22 22 22 22 21 20 19 18 17 16 16 15 15 14 14 13 13 13 13 13 13 13 13 12 12 12 12
24 24 23 23 24 24 24 24 24 24 24 24 24 24 26 25 24 24 23 22 21 20 20 19 18 17 17 16 15 15 14 14 13 13 13 13 13 13 13 12 12 12 12 12
23 23 23 24 24 24 24 23 23 23 24 24 24 24 26 25 25 25 24 22 21 20 20 19 18 17 17 16 15 15 14 14 13 13 13 13 13 13 12 12 12 12 12 12
23 23 24 24 24 24 23 23 23 23 24 24 24 24 25 26 26 25 24 22 21 20 19 19 18 17 16 16 15 15 14 14 13 13 13 13 13 12 12 12 12 12 12 12
23 23 23 23 23 23 23 24 23 23 24 24 24 24 25 26 25 24 24 23 22 20 19 19 18 17 16 16 15 15 14 14 13 13 13 13 13 12 12 12 12 12 12 12
23 23 23 23 24 24 24 25 24 23 24 25 24 24 26 25 23 22 22 22 21 20 19 18 18 17 16 16 15 15 14 14 14 13 13 13 13 13 13 12 12 12 12 12
24 24 23 23 24 25 24 24 25 25 24 24 25 25 26 24 23 23 22 22 21 20 19 19 18 17 16 16 15 15 14 14 14 13 13 13 13 13 13 12 12 12 12 12
24 24 23 23 23 22 24 25 24 24 23 24 24 25 25 25 25 24 24 23 22 20 19 19 18 17 17 16 15 15 14 14 14 14 13 13 13 13 13 13 12 12 12 12
24 24 23 23 24 24 23 24 24 24 24 24 24 25 26 25 25 25 24 23 22 21 20 19 18 17 17 16 16 15 15 14 14 14 13 13 13 13 13 13 13 12 12 12
24 24 24 24 24 24 24 25 25 24 24 24 24 25 25 25 24 24 24 23 22 21 20 19 18 17 17 16 16 15 15 14 14 14 13 13 13 13 13 13 13 12 12 12
23 24 24 24 24 23 24 23 24 24 24 24 24 25 25 25 24 23 23 22 21 20 20 19 18 17 17 16 16 16 15 15 14 14 14 13 13 13 13 13 13 12 13 12
22 24 24 23 24 24 24 23 23 24 24 24 24 25 26 25 25 24 23 22 21 20 20 19 18 18 17 17 16 16 15 15 15 14 14 14 13 13 13 13 13 13 13 12
23 24 24 24 24 24 24 24 23 23 24 24 25 25 26 26 25 24 23 22 21 20 20 19 19 18 17 17 16 16 16 15 15 14 14 14 14 13 13 13 13 13 13 13
23 24 24 24 24 23 23 24 23 23 23 24 24 24 26 25 24 24 23 22 21 21 20 20 19 18 18 17 17 16 16 15 15 14 14 14 14 14 14 13 13 13 13 13
24 24 24 24 24 23 24 25 24 24 24 24 24 25 26 25 24 24 23 22 21 21 21 20 20 19 18 18 17 16 16 16 15 15 14 14 14 14 14 14 13 13 13 13
23 23 24 24 24 22 25 24 24 24 24 25 24 25 25 24 23 23 22 22 22 21 20 20 20 19 19 18 17 17 16 16 15 15 14 14 14 14 14 14 14 14 13 13
22 23 23 23 23 23 25 24 23 23 24 25 24 24 24 23 22 23 22 22 22 21 21 20 20 19 19 18 17 17 16 16 15 15 15 14 14 14 14 14 14 14 13 13
20 22 23 23 22 22 24 24 23 23 24 25 24 24 23 23 25 25 23 22 21 21 21 20 20 19 19 18 18 17 17 16 16 15 15 15 15 15 14 14 14 14 14 14
22 21 22 22 22 23 24 22 22 23 24 23 23 23 23 23 24 23 22 21 21 21 21 20 20 19 19 18 18 17 17 16 16 16 15 15 15 15 14 14 14 14 14 14
23 22 22 22 22 23 23 22 23 24 23 22 22 22 22 22 21 21 21 21 21 21 21 20 20 19 19 19 18 17 17 16 16 16 15 15 15 14 14 14 14 14 14 13
22 23 23 23 23 23 21 22 22 21 21 21 21 21 20 20 20 20 20 20 20 20 20 20 20 19 19 18 18 17 17 17 16 16 15 15 15 14 14 14 14 13 13 13
22 20 21 21 23 22 20 20 20 19 19 20 20 19 19 20 20 20 20 20 20 20 20 20 19 19 19 18 18 17 17 17 16 16 15 15 14 14 14 14 13 13 13 13
20 19 20 21 22 21 21 20 19 19 19 19 19 19 19 19 20 20 20 20 20 20 20 19 19 19 18 18 18 17 17 16 16 15 15 14 14 14 13 13 13 13 13 13
19 19 20 20 21 21 20 19 18 18 18 18 18 19 19 19 19 19 19 19 19 19 19 19 19 18 18 18 17 17 17 16 15 15 14 14 14 13 13 13 13 13 13 13
Wind_Speed
11 11 12 12 10 6 5 6 5 3 3 6 9 9 7 7 9 10 10 10 10 9 8 7 7 6 5 3 1 0 2 3 3 4 4 4 4 5 4 4 5 6 6 6
10 12 10 8 7 7 7 8 6 2 2 5 6 8 7 7 10 10 10 10 10 9 9 8 8 7 5 3 2 1 1 2 3 3 4 4 5 5 4 4 5 6 6 6
11 7 8 8 9 10 9 8 5 3 1 3 5 7 6 5 6 8 9 9 9 10 10 9 9 7 6 4 2 1 1 1 2 3 3 4 3 3 3 5 5 5 6 5
8 5 8 10 10 9 7 4 4 4 5 3 3 5 3 5 6 8 9 10 10 10 10 9 9 8 6 4 3 2 1 1 2 3 3 5 5 5 5 5 5 5 5 5
6 6 8 9 7 8 3 2 3 5 6 6 5 6 3 4 6 7 8 9 10 10 10 10 9 8 6 5 3 3 2 1 2 3 3 4 4 4 4 5 5 5 4 4
3 3 4 4 2 4 6 5 3 4 5 6 4 6 3 3 4 5 6 8 9 10 10 9 8 7 6 5 4 3 2 1 1 3 3 4 4 5 6 6 6 5 4 4
5 5 4 3 5 6 6 5 4 4 5 3 2 5 4 1 1 3 4 6 9 10 10 10 10 8 7 6 5 4 3 2 2 3 3 3 4 5 5 6 5 5 5 5
6 7 6 5 5 5 7 6 4 3 3 1 3 5 1 1 1 2 4 5 8 10 10 10 9 8 7 7 6 5 4 3 2 3 3 3 3 3 4 4 5 5 5 5
4 4 4 2 1 3 5 5 4 5 4 5 3 3 3 3 4 5 6 7 8 10 10 10 9 9 8 7 6 5 4 3 3 3 2 3 3 3 4 4 4 4 5 5
1 3 5 4 4 2 2 3 4 4 4 4 3 4 2 3 6 7 8 8 8 9 10 10 9 9 8 7 7 6 5 4 3 3 2 2 3 3 4 4 4 5 5 5
2 3 5 5 5 4 5 5 4 4 4 4 4 2 1 2 3 6 7 8 8 9 9 10 9 9 8 8 7 6 5 4 3 3 2 2 2 3 3 3 4 4 4 4
1 2 4 4 2 1 5 6 7 6 4 5 6 4 2 3 3 5 6 7 7 8 8 9 9 9 9 9 8 7 6 5 4 3 3 2 2 2 3 3 4 4 4 4
2 3 3 4 4 4 5 5 6 5 5 6 7 4 3 3 4 6 7 7 7 8 9 9 9 9 9 9 8 7 6 5 4 4 3 3 3 2 3 3 4 4 4 3
2 3 4 3 2 2 5 6 8 8 8 8 10 11 7 7 7 7 7 8 8 9 9 10 10 10 10 9 9 8 7 6 5 4 4 3 2 2 3 3 3 3 3 3
4 5 5 5 4 5 8 9 10 12 12 12 12 12 12 9 8 7 7 8 9 9 10 11 11 10 10 10 9 8 7 7 6 5 4 3 3 2 2 2 2 3 3 3
4 5 6 7 5 6 9 11 12 13 12 13 14 14 11 9 7 7 8 9 10 11 11 11 11 11 11 11 10 9 8 7 7 6 5 3 3 2 2 2 2 2 2 3
4 5 7 8 4 6 9 9 10 9 10 11 12 12 9 8 8 9 8 9 11 11 11 11 12 12 12 11 11 10 9 8 8 7 5 4 4 3 2 2 2 2 2 2
7 7 6 7 7 9 4 0 4 8 10 11 12 11 10 9 8 8 8 9 10 10 10 11 11 11 11 10 10 10 9 9 8 7 6 5 4 3 3 3 2 3 2 2
8 7 6 7 9 9 6 3 4 6 7 6 8 9 6 5 5 6 7 8 9 9 9 9 10 10 10 11 11 10 10 9 9 8 7 6 5 4 3 3 3 3 3 2
5 8 8 7 9 8 4 1 1 5 6 3 5 6 4 3 5 3 3 6 6 6 7 8 9 10 10 10 11 11 11 10 9 8 7 6 5 4 4 4 3 3 3 3
5 6 9 11 11 8 4 1 4 6 3 6 5 5 5 6 6 4 1 4 5 6 7 8 9 9 10 10 11 12 11 10 8 8 7 6 5 5 4 4 3 3 3 3
7 6 8 8 9 7 2 4 4 4 6 6 6 6 6 7 7 4 3 3 5 6 7 9 9 9 9 10 11 11 10 8 8 7 7 6 5 4 4 4 3 3 3 4
7 6 5 6 5 3 1 3 4 6 7 8 8 8 7 7 7 5 5 5 6 7 8 8 9 9 9 10 10 11 9 8 8 8 7 6 6 5 4 3 3 3 3 3
6 3 5 7 9 7 7 6 6 7 9 11 10 9 8 8 8 7 6 6 6 7 8 8 10 10 10 10 10 9 9 9 9 9 8 7 6 5 4 3 2 2 2 3
8 5 7 12 11 9 6 5 7 10 11 11 11 10 10 10 9 8 7 7 7 7 8 9 10 10 10 10 10 9 9 9 9 9 8 7 6 5 4 3 1 1 1 2
13 12 13 13 12 11 12 12 13 14 14 13 13 12 11 10 10 9 8 8 7 8 8 9 10 10 10 10 10 10 9 10 10 8 8 6 6 5 5 4 4 4 3 5
Wind_Direction
176 192 200 202 210 233 237 240 248 253 191 220 237 249 239 214 215 221 216 211 208 206 192 183 183 184 185 180 197 5 339 357 348 342 335 334 339 338 340 342 340 331 323 321
178 204 205 199 203 220 234 244 250 232 181 237 262 264 250 229 225 225 223 213 207 200 191 184 187 189 194 189 202 243 323 354 354 351 334 326 323 325 335 334 339 340 332 326
194 193 182 192 200 218 232 247 257 260 213 222 281 262 221 200 216 218 221 217 209 203 200 188 188 190 191 196 195 222 297 340 350 341 333 326 325 319 335 343 345 344 336 328
198 174 188 203 211 221 231 240 253 250 251 249 260 282 220 198 210 208 207 206 205 199 198 191 188 191 192 192 189 211 232 309 333 328 333 338 337 341 344 337 338 333 335 335
186 186 196 210 217 221 217 154 218 240 256 261 234 265 232 187 209 199 198 201 201 195 194 190 189 189 189 184 189 208 223 266 315 325 332 319 332 338 334 334 337 337 343 343
151 179 215 209 180 192 151 153 165 213 243 252 236 252 254 187 201 184 183 190 192 190 189 187 183 183 184 181 187 201 216 242 290 303 311 320 332 329 334 340 342 343 346 343
173 170 165 174 162 163 197 217 224 223 225 239 157 250 262 111 210 218 196 186 184 184 186 186 185 185 186 188 192 198 210 234 263 288 305 321 326 323 331 336 339 337 341 343
183 174 175 190 215 200 205 230 257 273 269 264 199 246 260 118 228 228 210 184 180 184 187 189 189 187 189 192 193 200 210 230 254 277 299 315 327 322 336 336 332 332 335 339
194 149 136 168 212 217 192 218 280 285 288 278 242 256 261 185 205 194 184 181 186 187 188 190 189 189 191 192 194 201 211 227 246 261 279 304 320 326 332 332 334 334 333 337
259 160 146 148 154 79 291 185 216 254 279 275 271 267 275 198 200 194 195 195 191 190 191 191 189 190 191 191 193 197 210 224 238 249 261 282 300 315 323 329 335 334 335 340
259 188 156 181 210 198 177 198 223 244 270 285 297 309 19 269 219 207 206 202 196 194 195 192 189 188 188 188 190 194 203 216 224 234 246 260 284 307 316 326 337 333 331 335
250 246 181 181 150 275 243 239 229 248 242 256 284 291 120 241 242 224 217 206 200 197 194 191 187 184 186 190 192 196 201 207 212 222 238 257 283 294 306 321 330 332 332 333
213 246 201 177 176 186 216 220 230 253 260 252 262 280 139 226 238 225 221 212 201 195 192 189 187 189 191 193 195 197 201 204 204 210 228 245 260 284 300 316 325 329 332 333
255 254 266 271 319 242 224 210 213 228 252 259 258 278 282 265 251 234 224 217 205 199 195 194 193 194 195 196 196 197 198 198 201 207 220 236 253 273 290 305 317 325 331 334
249 264 266 280 286 263 256 243 223 232 254 268 276 276 282 280 263 247 229 216 207 203 200 199 198 197 194 197 197 196 196 195 196 202 213 224 233 248 279 301 310 318 324 325
249 265 270 265 255 255 260 255 241 241 252 259 269 274 276 281 264 245 230 217 212 209 205 203 200 197 197 196 194 192 194 194 194 200 206 212 230 243 274 289 302 319 313 317
241 255 267 270 268 265 259 253 240 238 238 248 260 274 283 272 257 245 233 219 217 215 207 202 200 199 199 196 192 192 192 188 193 198 198 207 220 233 259 274 284 292 294 313
247 249 259 273 270 260 286 62 244 247 260 254 263 279 282 277 275 257 241 228 221 214 207 202 199 196 195 190 188 189 187 188 194 198 200 203 219 232 248 263 275 280 293 302
235 236 248 261 267 272 276 241 228 246 274 271 263 275 288 290 268 241 224 224 223 212 205 198 194 189 186 185 184 184 186 188 193 198 203 203 211 225 239 251 263 275 283 288
207 227 242 246 262 266 283 63 221 250 261 324 281 279 277 249 257 261 191 204 211 200 189 182 181 181 182 181 180 186 190 191 196 198 203 202 209 219 231 244 258 266 271 278
199 211 231 244 254 262 289 142 182 238 308 1 325 298 264 246 277 321 255 200 197 186 178 175 177 181 180 176 179 190 193 197 195 193 196 198 203 214 226 237 246 255 262 273
250 239 233 238 248 256 137 163 212 308 344 339 325 313 285 272 286 287 250 204 185 178 174 175 177 177 175 177 184 191 193 190 184 185 190 195 202 209 216 224 240 250 257 262
244 257 264 245 263 1 187 248 303 325 315 320 318 312 298 280 273 265 242 216 195 187 180 179 179 174 173 179 188 190 184 180 178 181 187 193 196 198 209 218 227 239 246 263
251 260 257 260 265 282 282 282 293 301 298 302 305 303 292 279 271 257 241 222 205 194 186 182 182 181 179 180 186 188 177 175 180 184 189 190 195 196 195 204 228 241 259 266
272 254 259 265 275 286 277 291 317 320 312 305 301 296 286 278 268 255 240 225 211 199 190 187 190 189 184 179 181 181 177 179 183 187 189 190 191 191 187 170 151 234 46 346
251 249 256 266 278 282 286 304 313 309 308 308 302 296 289 275 267 257 245 230 215 203 193 192 194 191 186 182 181 178 178 184 188 188 190 190 188 185 184 171 146 81 70 67
Height
1496 1498 1499 1498 1498 1499 1500 1502 1503 1502 1503 1505 1504 1502 1501 1504 1507 1508 1509 1511 1514 1517 1519 1521 1521 1522 1523 1523 1523 1523 1522 1521 1519 1518 1517 1515 1514 1512 1510 1508 1506 1504 1503 1501
1497 1497 1494 1496 1498 1500 1501 1502 1501 1501 1503 1503 1501 1499 1497 1500 1503 1504 1506 1508 1511 1514 1517 1518 1520 1521 1522 1522 1522 1522 1521 1520 1518 1517 1516 1514 1512 1511 1509 1507 1505 1503 1502 1500
1493 1493 1494 1498 1500 1502 1501 1501 1500 1503 1503 1503 1502 1498 1494 1497 1501 1503 1504 1506 1509 1511 1514 1516 1518 1519 1520 1521 1520 1520 1520 1519 1517 1516 1515 1513 1512 1510 1509 1507 1504 1502 1500 1498
1491 1493 1496 1497 1497 1498 1501 1498 1501 1502 1505 1503 1504 1504 1492 1493 1496 1498 1501 1504 1506 1509 1512 1514 1516 1517 1518 1519 1519 1519 1518 1518 1517 1515 1514 1513 1512 1510 1508 1506 1504 1501 1499 1497
1492 1493 1494 1496 1495 1496 1498 1500 1501 1502 1502 1503 1500 1503 1492 1491 1492 1493 1497 1500 1504 1506 1509 1512 1514 1515 1516 1517 1517 1517 1517 1517 1516 1515 1513 1512 1511 1509 1507 1505 1503 1501 1499 1497
1492 1494 1493 1493 1496 1497 1501 1501 1502 1501 1500 1507 1499 1501 1496 1487 1487 1490 1494 1498 1501 1504 1507 1510 1511 1513 1514 1515 1515 1515 1516 1515 1514 1514 1513 1512 1510 1508 1507 1505 1503 1501 1499 1497
1494 1493 1495 1496 1498 1500 1499 1501 1508 1509 1508 1503 1499 1501 1492 1486 1488 1490 1493 1496 1499 1502 1505 1507 1509 1511 1512 1513 1514 1514 1514 1514 1513 1513 1512 1511 1509 1508 1506 1504 1503 1501 1499 1497
1494 1497 1493 1494 1493 1494 1495 1496 1507 1513 1509 1500 1500 1498 1486 1487 1490 1492 1493 1495 1497 1500 1503 1505 1507 1509 1510 1511 1512 1513 1513 1513 1512 1511 1511 1510 1509 1507 1506 1504 1502 1501 1499 1496
1490 1494 1493 1494 1494 1492 1495 1495 1493 1496 1499 1502 1494 1490 1484 1486 1488 1490 1492 1494 1496 1498 1500 1503 1505 1506 1508 1509 1510 1511 1511 1511 1511 1510 1510 1509 1508 1507 1505 1504 1502 1500 1498 1496
1486 1492 1492 1495 1495 1497 1493 1492 1495 1498 1507 1507 1499 1493 1487 1483 1484 1486 1489 1491 1494 1496 1498 1500 1502 1504 1506 1507 1508 1509 1510 1510 1510 1509 1509 1508 1507 1506 1504 1503 1502 1500 1498 1496
1488 1490 1495 1493 1492 1492 1496 1496 1494 1495 1497 1504 1505 1495 1480 1480 1481 1483 1486 1488 1491 1494 1496 1498 1500 1501 1503 1505 1506 1507 1508 1508 1508 1508 1508 1507 1506 1505 1504 1503 1501 1500 1498 1496
1489 1487 1491 1490 1490 1491 1489 1489 1491 1497 1498 1498 1500 1493 1478 1480 1482 1483 1484 1487 1489 1491 1493 1495 1497 1499 1501 1502 1504 1505 1506 1507 1507 1507 1507 1506 1505 1504 1504 1503 1501 1500 1498 1496
1490 1489 1494 1496 1496 1493 1491 1491 1491 1491 1492 1495 1499 1490 1477 1479 1480 1482 1483 1485 1487 1489 1491 1493 1494 1496 1498 1500 1502 1503 1504 1505 1505 1505 1505 1505 1505 1504 1503 1502 1500 1499 1498 1496
1491 1487 1492 1498 1491 1487 1489 1491 1492 1491 1491 1491 1490 1483 1475 1475 1476 1478 1481 1482 1484 1486 1488 1490 1491 1493 1495 1497 1499 1501 1502 1503 1503 1504 1504 1504 1503 1503 1502 1501 1500 1499 1497 1496
1490 1487 1485 1485 1485 1486 1486 1486 1489 1489 1484 1485 1480 1479 1473 1471 1473 1475 1477 1479 1481 1483 1484 1486 1488 1490 1492 1495 1497 1498 1500 1501 1501 1502 1503 1503 1502 1502 1501 1500 1499 1498 1496 1495
1488 1486 1485 1485 1484 1485 1485 1482 1482 1484 1482 1481 1479 1476 1468 1470 1471 1472 1474 1475 1477 1479 1481 1483 1485 1487 1489 1491 1493 1495 1497 1498 1500 1501 1501 1501 1501 1501 1500 1499 1498 1497 1496 1495
1486 1485 1487 1485 1482 1484 1484 1475 1476 1476 1475 1475 1475 1469 1465 1467 1468 1469 1470 1471 1473 1475 1477 1479 1481 1483 1486 1488 1490 1492 1494 1496 1497 1499 1499 1499 1500 1499 1499 1498 1497 1496 1496 1494
1485 1485 1484 1484 1485 1493 1474 1470 1471 1472 1470 1468 1467 1465 1465 1465 1466 1466 1467 1468 1469 1471 1473 1475 1478 1480 1483 1485 1487 1490 1492 1493 1495 1496 1497 1498 1498 1498 1498 1497 1496 1496 1495 1494
1485 1484 1484 1484 1485 1480 1470 1468 1470 1471 1467 1463 1464 1463 1464 1464 1464 1462 1463 1464 1466 1468 1470 1472 1474 1477 1480 1482 1484 1487 1489 1491 1492 1494 1495 1495 1496 1496 1496 1496 1495 1495 1494 1493
1486 1484 1482 1483 1488 1486 1471 1467 1468 1470 1467 1462 1462 1462 1463 1463 1460 1458 1460 1461 1463 1465 1467 1469 1471 1474 1476 1479 1481 1484 1486 1488 1490 1491 1492 1493 1494 1494 1494 1494 1494 1493 1493 1492
1482 1482 1482 1480 1480 1472 1464 1467 1469 1473 1467 1463 1462 1461 1461 1461 1459 1460 1459 1460 1461 1462 1464 1466 1468 1471 1473 1476 1478 1481 1483 1485 1487 1488 1489 1490 1491 1492 1492 1492 1492 1492 1491 1490
1474 1475 1476 1476 1479 1474 1465 1466 1466 1464 1463 1463 1462 1461 1460 1460 1459 1458 1458 1458 1459 1460 1462 1463 1466 1468 1470 1473 1475 1478 1480 1482 1484 1485 1486 1487 1488 1489 1489 1489 1490 1489 1489 1489
1473 1470 1468 1468 1467 1465 1465 1465 1465 1465 1464 1463 1461 1460 1459 1457 1457 1456 1456 1456 1457 1458 1459 1461 1463 1465 1467 1470 1472 1475 1477 1479 1480 1482 1483 1485 1486 1486 1487 1487 1487 1487 1487 1487
1470 1473 1471 1468 1462 1464 1465 1464 1464 1464 1463 1461 1460 1458 1456 1455 1454 1453 1453 1454 1454 1455 1456 1458 1460 1462 1464 1466 1469 1471 1473 1475 1477 1479 1480 1482 1483 1484 1484 1484 1484 1484 1484 1484
1472 1472 1469 1465 1462 1462 1461 1462 1462 1461 1460 1458 1456 1455 1453 1452 1451 1450 1450 1450 1451 1452 1453 1455 1456 1458 1461 1463 1465 1467 1470 1472 1474 1476 1477 1479 1479 1480 1481 1481 1481 1481 1481 1481
1469 1469 1467 1462 1461 1461 1459 1459 1459 1458 1456 1454 1452 1450 1449 1448 1447 1447 1446 1446 1447 1448 1449 1451 1452 1454 1457 1459 1461 1463 1466 1468 1470 1472 1474 1475 1476 1477 1478 1478 1478 1478 1478 1478